Location: Lombard
(41.8800°N, 88.0080°W)
Time: 00:35:04
(UTC-05:00)

Tiros 1 - Pass Details

Date: 28 January 2023
Orbit: 628 x 662 km, 48.4° (Epoch: 20 March)

Event Time Altitude Azimuth Distance (km) Brightness Sun altitude
Rises 03:38:24 0° 257° (WSW) 2,916 - -39.1°
Reaches altitude 10° 03:40:45 10° 262° (W) 2,015 - -38.7°
Maximum altitude 03:45:18 55° 341° (NNW) 770 - -37.8°
Exits shadow 03:49:03 15° 56° (NE) 1,721 9.9 -37.1°
Drops below altitude 10° 03:49:55 10° 59° (ENE) 2,041 10.4 -37.0°
Sets 03:52:19 0° 64° (ENE) 2,959 11.4 -36.5°
